Torna al catalogo

SL-8 R/B

AttivoLEO
NORAD 11051·ROCKET BODY·🇷🇺 Russia

Lanciato Oct 4, 1978 da Plesetsk Cosmodrome

Loading…

Prossimi Passaggi (prossime 24 ore)

TLE

AggiornatoSource: Space-Track

Epoca: Sep 14, 2026, 10:02 UTC

1 11051U 78091J   26257.41815361 -.00000081  00000-0 -62410-3 0  9991
2 11051  74.0418  40.4411 0136498 189.1868 198.4633 12.20473583136302

Traccia SL-8 R/B in tempo reale con AllMySat

Download on the App Store